Location: 81360 Arifat, France
(43.7204°N, 2.3408°E)
Time: 07:24:53
(UTC+02:00)

Envisat - Pass Details

Date: 04 October 2021
Orbit: 764 x 766 km, 98.2° (Epoch: 23 October)

Event Time Altitude Azimuth Distance (km) Brightness Sun altitude
Rises 07:02:00 0° 13° (NNE) 3,240 6.5 -9.8°
Reaches altitude 10° 07:04:19 10° 14° (NNE) 2,309 5.7 -9.4°
Maximum altitude 07:09:26 85° 104° (ESE) 773 3.1 -8.5°
Drops below altitude 10° 07:14:29 10° 193° (SSW) 2,292 5.3 -7.6°
Sets 07:16:47 0° 194° (SSW) 3,213 6.1 -7.1°
